#timestamp,LO_Frequency,Hit,StdDev 
1507399215.3,286046999.1,N
1507399235.2,286046998.9,N
1507399255.9,286046997.1,N
1507399275.7,286046996.6,N
1507399295.6,286046997.9,N
1507399315.4,286046996.5,N
1507399335.2,286046999.1,N
1507399355.1,286046998.0,N
1507399356.0,286046998.0,N
1507399375.8,286046997.0,N
1507399395.6,286046998.9,N
1507399415.5,286046998.9,N
1507399435.3,286046998.2,N
1507399455.1,286047000.8,N
1507399475.8,286046998.7,N
1507399495.7,286046999.1,N
1507399515.5,286046995.3,N
1507399535.3,286046997.6,N
1507399555.2,286046995.8,N
1507399575.9,286046998.0,N
1507399595.7,286046994.9,N
1507399615.6,286046997.2,N
1507399635.4,286047000.7,N
1507399655.2,286046999.0,N
1507399675.1,286047002.5,N
1507399676.0,286047002.5,N
1507399695.8,286047003.8,N
1507399715.6,286047004.8,N
1507399735.4,286047004.2,N
1507399755.3,286047001.9,N
1507399775.1,286046998.7,N
1507399795.8,286046997.6,N
1507399815.7,286046995.4,N
1507399835.5,286046992.6,N
1507399855.3,286046989.1,Y
1507399875.2,286046989.4,P
1507399895.0,286046991.6,N
1507399895.9,286046991.6,N
1507399915.7,286046990.1,N
1507399935.6,286046991.8,N
1507399955.4,286046994.8,N
1507399975.2,286046994.7,N
1507399995.1,286046993.6,N
1507399996.0,286046993.6,N
1507400015.8,286046992.2,Y
1507400035.6,286046999.0,P
1507400055.5,286047000.9,N
1507400075.3,286047000.1,N
1507400095.1,286046998.8,N
1507400115.9,286046995.3,N
1507400135.7,286046994.6,N
1507400155.5,286046992.1,N
1507400175.4,286046996.4,N
1507400195.2,286046996.3,N
1507400215.0,286046994.6,N
1507400215.9,286046994.6,N
1507400235.8,286046996.2,N
1507400255.6,286046996.9,N
1507400275.4,286046997.8,N
1507400295.2,286046994.1,N
1507400315.1,286046990.9,Y
1507400316.0,286046990.9,P
1507400335.8,286046999.3,N
1507400355.6,286047003.5,N
1507400375.5,286047007.1,N
1507400395.3,286047012.0,N
1507400415.1,286047014.6,N
1507400435.9,286047017.5,N
1507400455.7,286047021.5,N
1507400475.5,286047024.4,N
1507400495.4,286047026.6,N
1507400515.2,286047024.2,N
1507400535.0,286047025.0,N
1507400535.9,286047025.0,N
1507400555.8,286047023.0,N
1507400575.6,286047025.8,N
1507400595.4,286047026.1,N
1507400615.3,286047030.9,N
1507400635.1,286047028.9,N
1507400636.0,286047028.9,N
1507400655.8,286047027.1,N
1507400675.7,286047025.3,N
1507400695.5,286047026.5,N
1507400715.3,286047027.5,N
1507400735.1,286047026.0,N
1507400755.9,286047027.2,N
1507400775.7,286047024.9,N
1507400795.5,286047025.4,N
1507400815.4,286047028.5,N
1507400835.2,286047031.4,N
1507400855.0,286047029.0,N
1507400855.9,286047029.0,N
1507400875.8,286047032.0,Y
1507400895.6,286047010.7,P
1507400915.4,286047011.9,N
1507400935.3,286047009.3,N
1507400955.1,286047012.3,N
1507400975.8,286047011.6,N
1507400995.7,286047010.3,N
1507401015.5,286047010.3,N
1507401035.3,286047009.2,N
1507401055.2,286047001.5,N
1507401075.9,286047000.8,N
1507401095.7,286046996.9,N
1507401115.5,286046993.2,N
1507401135.4,286046987.3,N
1507401155.2,286046987.5,N
1507401175.0,286046989.5,N
1507401175.9,286046989.5,N
1507401195.8,286046988.0,N
1507401215.6,286046983.7,N
1507401235.4,286046985.7,N
1507401255.3,286046986.3,N
1507401275.1,286046987.7,N
1507401276.0,286046987.7,N
1507401295.8,286046989.8,N
1507401315.7,286046989.6,N
1507401335.5,286046987.7,N
1507401355.3,286046986.9,N
1507401375.2,286046991.4,N
1507401395.9,286046988.7,N
1507401415.7,286046988.6,N
1507401435.5,286046987.0,N
1507401455.4,286046988.2,N
1507401475.2,286046984.3,N
1507401495.0,286046985.2,N
1507401495.9,286046985.2,N
1507401515.8,286046984.4,N
1507401535.6,286046985.7,N
1507401555.4,286046986.8,N
1507401575.3,286046987.6,N
1507401595.1,286046987.6,N
1507401615.8,286046987.9,Y
1507401635.7,286046996.7,P
1507401655.5,286046999.2,N
1507401675.3,286047000.9,N
1507401695.2,286046999.7,N
1507401715.9,286047000.7,N
1507401735.7,286047000.5,N
1507401755.6,286046999.9,N
1507401775.4,286046999.2,N
1507401795.2,286046998.3,N
1507401815.1,286046998.7,N
1507401816.0,286046998.7,N
1507401835.8,286046998.2,N
1507401855.6,286047000.4,N
1507401875.4,286047002.7,N
1507401895.3,286047000.8,N
1507401915.1,286047000.0,N
1507401935.8,286046998.9,N
1507401955.7,286046999.1,N
1507401975.5,286046999.0,N
1507401995.3,286046999.2,N
1507402015.2,286046997.1,N
1507402035.9,286046997.5,N
1507402055.7,286046996.8,N
1507402075.6,286046996.0,N
1507402095.4,286046995.8,N
1507402115.2,286046993.3,N
1507402135.1,286046997.8,N
1507402136.0,286046997.8,N
1507402155.8,286046995.7,N
1507402175.6,286046997.2,N
1507402195.4,286046995.7,N
1507402215.3,286046995.1,N
1507402235.1,286046997.8,N
1507402255.8,286046997.0,N
1507402275.7,286046995.1,N
1507402295.5,286046996.5,N
1507402315.3,286046997.6,N
1507402335.2,286046994.5,N
1507402355.9,286046994.2,N
1507402375.7,286046991.7,Y
1507402395.6,286046996.7,P
1507402415.4,286046999.1,N
1507402435.2,286046997.9,N
1507402455.1,286046996.9,Y
1507402456.0,286046996.9,P
1507402475.8,286047002.8,P
1507402495.6,286047000.0,N
1507402515.5,286046998.8,N
1507402535.3,286046999.2,N
1507402555.1,286046998.3,N
1507402575.9,286046999.3,N
1507402595.7,286046999.2,N
1507402615.5,286046998.1,N
1507402635.4,286046998.4,N
1507402655.2,286046998.5,N
1507402675.0,286047002.8,N
1507402675.9,286047002.8,N
1507402695.8,286047001.1,N
1507402715.6,286047000.8,N
1507402735.4,286046998.0,N
1507402755.2,286046999.1,N
1507402775.1,286047003.2,N
1507402776.0,286047003.2,N
1507402795.8,286047010.3,Y
